When you browse on this site, cookies collect data to enhance your experience and personalize the content and advertising you see.
Visit our Privacy Policy to learn more. By continuing to use the site, you agree to this use of cookies and data.
  • In Germany
  • List of Countries
  • For 7 days
  • Water Temperature
  • Weather Map
  • Weather Widgets
  • user-avatar
    Login

    Hourly Weather Brisbane

    Today, 4 June, Thursday

    Time Temperature Precipitation Wind Pressure Humidity
    00:00 +12°C° 0 mm 3 mps 767 mmHg 67%
    01:00 +12°C° 0 mm 3 mps 767 mmHg 68%
    02:00 +11°C° 0 mm 3 mps 767 mmHg 69%
    03:00 +11°C° 0 mm 3 mps 767 mmHg 70%
    04:00 +10°C° 0 mm 3 mps 767 mmHg 71%
    05:00 +10°C° 0 mm 3 mps 768 mmHg 70%
    06:00 +10°C° 0 mm 3 mps 768 mmHg 70%
    07:00 +11°C° 0 mm 3 mps 768 mmHg 69%
    08:00 +13°C° 0 mm 3 mps 769 mmHg 64%
    09:00 +16°C° 0 mm 3 mps 769 mmHg 59%
    10:00 +18°C° 0 mm 3 mps 769 mmHg 55%
    11:00 +19°C° 0 mm 4 mps 768 mmHg 53%
    12:00 +20°C° 0 mm 4 mps 768 mmHg 52%
    13:00 +20°C° 0 mm 4 mps 768 mmHg 50%
    14:00 +20°C° 0 mm 4 mps 768 mmHg 52%
    15:00 +20°C° 0 mm 4 mps 768 mmHg 55%
    16:00 +19°C° 0 mm 4 mps 768 mmHg 57%
    17:00 +18°C° 0 mm 4 mps 768 mmHg 62%
    18:00 +17°C° 0 mm 3 mps 769 mmHg 67%
    19:00 +14°C° 0 mm 3 mps 769 mmHg 72%
    20:00 +14°C° 0 mm 3 mps 769 mmHg 74%
    21:00 +14°C° 0 mm 3 mps 769 mmHg 76%
    22:00 +13°C° 0 mm 3 mps 769 mmHg 78%
    23:00 +13°C° 0 mm 3 mps 769 mmHg 80%

    Tomorrow, 5 June, Friday

    Time Temperature Precipitation Wind Pressure Humidity
    00:00 +12°C° 0 mm 3 mps 769 mmHg 81%
    01:00 +12°C° 0 mm 3 mps 769 mmHg 82%
    02:00 +12°C° 0 mm 3 mps 769 mmHg 83%
    03:00 +12°C° 0 mm 2 mps 768 mmHg 83%
    04:00 +12°C° 0 mm 2 mps 768 mmHg 84%
    05:00 +12°C° 0 mm 2 mps 768 mmHg 82%
    06:00 +12°C° 0 mm 2 mps 769 mmHg 80%
    07:00 +12°C° 0 mm 2 mps 769 mmHg 78%
    08:00 +14°C° 0 mm 2 mps 769 mmHg 71%
    09:00 +17°C° 0 mm 3 mps 769 mmHg 63%
    10:00 +19°C° 0 mm 3 mps 769 mmHg 56%
    11:00 +20°C° 0 mm 3 mps 768 mmHg 53%
    12:00 +21°C° 0 mm 3 mps 768 mmHg 50%
    13:00 +22°C° 0 mm 3 mps 767 mmHg 48%
    14:00 +21°C° 0 mm 3 mps 767 mmHg 50%
    15:00 +21°C° 0 mm 3 mps 766 mmHg 52%
    16:00 +20°C° 0 mm 3 mps 766 mmHg 53%
    17:00 +19°C° 0 mm 2 mps 767 mmHg 59%
    18:00 +17°C° 0 mm 2 mps 767 mmHg 65%
    19:00 +16°C° 0 mm 2 mps 767 mmHg 70%
    20:00 +15°C° 0 mm 2 mps 767 mmHg 73%
    21:00 +15°C° 0 mm 2 mps 767 mmHg 75%
    22:00 +14°C° 0 mm 2 mps 767 mmHg 78%
    23:00 +14°C° 0 mm 2 mps 767 mmHg 78%

    Day after tomorrow, 6 June, Saturday

    Time Temperature Precipitation Wind Pressure Humidity
    00:00 +13°C° 0 mm 2 mps 767 mmHg 79%
    01:00 +13°C° 0 mm 2 mps 766 mmHg 80%
    02:00 +13°C° 0.1 mm 2 mps 766 mmHg 80%
    03:00 +13°C° 0.1 mm 2 mps 766 mmHg 80%
    04:00 +13°C° 0.1 mm 2 mps 766 mmHg 80%
    05:00 +13°C° 0 mm 2 mps 766 mmHg 79%
    06:00 +13°C° 0 mm 2 mps 766 mmHg 79%
    07:00 +13°C° 0 mm 2 mps 766 mmHg 79%
    08:00 +15°C° 0 mm 2 mps 766 mmHg 71%
    09:00 +17°C° 0 mm 2 mps 766 mmHg 64%
    10:00 +19°C° 0 mm 2 mps 766 mmHg 56%
    11:00 +21°C° 0 mm 1 mps 765 mmHg 53%
    12:00 +22°C° 0 mm 1 mps 764 mmHg 50%
    13:00 +24°C° 0 mm 1 mps 764 mmHg 47%
    14:00 +23°C° 0 mm 1 mps 764 mmHg 51%
    15:00 +21°C° 0 mm 2 mps 763 mmHg 55%
    16:00 +21°C° 0 mm 2 mps 763 mmHg 59%
    17:00 +20°C° 0 mm 1 mps 764 mmHg 64%
    18:00 +19°C° 0 mm 1 mps 764 mmHg 70%
    19:00 +16°C° 0 mm 1 mps 764 mmHg 76%
    20:00 +16°C° 0 mm 1 mps 764 mmHg 78%
    21:00 +15°C° 0 mm 1 mps 764 mmHg 80%
    22:00 +15°C° 0 mm 1 mps 765 mmHg 82%
    23:00 +15°C° 0 mm 1 mps 764 mmHg 84%

    7 June, Sunday

    Time Temperature Precipitation Wind Pressure Humidity
    00:00 +14°C° 0 mm 1 mps 764 mmHg 85%
    01:00 +14°C° 0 mm 2 mps 764 mmHg 86%
    02:00 +14°C° 0 mm 2 mps 764 mmHg 87%
    03:00 +13°C° 0 mm 2 mps 764 mmHg 87%
    04:00 +13°C° 0 mm 2 mps 763 mmHg 88%
    05:00 +13°C° 0 mm 2 mps 764 mmHg 88%
    06:00 +13°C° 0 mm 2 mps 764 mmHg 88%
    07:00 +13°C° 0 mm 2 mps 764 mmHg 88%
    08:00 +15°C° 0 mm 2 mps 764 mmHg 78%
    09:00 +17°C° 0 mm 2 mps 764 mmHg 68%
    10:00 +20°C° 0 mm 2 mps 764 mmHg 58%
    11:00 +21°C° 0 mm 2 mps 763 mmHg 51%
    12:00 +23°C° 0 mm 2 mps 763 mmHg 44%
    13:00 +24°C° 0 mm 2 mps 762 mmHg 37%
    14:00 +24°C° 0 mm 2 mps 762 mmHg 39%
    15:00 +23°C° 0 mm 2 mps 762 mmHg 41%
    16:00 +23°C° 0 mm 2 mps 761 mmHg 43%
    17:00 +21°C° 0 mm 1 mps 762 mmHg 48%
    18:00 +19°C° 0 mm 1 mps 763 mmHg 52%
    19:00 +18°C° 0 mm 1 mps 763 mmHg 56%
    20:00 +16°C° 0 mm 1 mps 763 mmHg 57%
    21:00 +15°C° 0 mm 1 mps 764 mmHg 57%
    22:00 +14°C° 0 mm 2 mps 764 mmHg 58%
    23:00 +14°C° 0 mm 2 mps 764 mmHg 59%

    8 June, Monday

    Time Temperature Precipitation Wind Pressure Humidity
    00:00 +13°C° 0 mm 2 mps 764 mmHg 61%
    01:00 +13°C° 0 mm 2 mps 764 mmHg 63%
    02:00 +12°C° 0 mm 2 mps 764 mmHg 65%
    03:00 +12°C° 0 mm 2 mps 764 mmHg 67%
    04:00 +10°C° 0 mm 2 mps 764 mmHg 69%
    05:00 +10°C° 0 mm 2 mps 765 mmHg 71%
    06:00 +10°C° 0 mm 2 mps 765 mmHg 73%
    07:00 +10°C° 0 mm 2 mps 766 mmHg 75%
    08:00 +13°C° 0 mm 2 mps 766 mmHg 70%
    09:00 +16°C° 0 mm 3 mps 766 mmHg 64%
    10:00 +18°C° 0 mm 3 mps 766 mmHg 59%
    11:00 +19°C° 0 mm 3 mps 766 mmHg 54%
    12:00 +20°C° 0 mm 4 mps 765 mmHg 50%
    13:00 +21°C° 0 mm 4 mps 765 mmHg 45%
    14:00 +21°C° 0 mm 4 mps 765 mmHg 47%
    15:00 +20°C° 0 mm 4 mps 765 mmHg 48%
    16:00 +20°C° 0 mm 4 mps 766 mmHg 50%
    17:00 +19°C° 0 mm 4 mps 766 mmHg 55%
    18:00 +17°C° 0 mm 4 mps 767 mmHg 59%
    19:00 +15°C° 0 mm 4 mps 768 mmHg 64%
    20:00 +14°C° 0 mm 3 mps 768 mmHg 68%
    21:00 +13°C° 0 mm 3 mps 768 mmHg 72%
    22:00 +13°C° 0 mm 3 mps 769 mmHg 77%
    23:00 +12°C° 0 mm 3 mps 769 mmHg 79%

    9 June, Tuesday

    Time Temperature Precipitation Wind Pressure Humidity
    00:00 +13°C° 0 mm 2 mps 769 mmHg 82%
    01:00 +13°C° 0 mm 2 mps 768 mmHg 84%
    02:00 +13°C° 0 mm 2 mps 768 mmHg 85%
    03:00 +13°C° 0 mm 2 mps 768 mmHg 86%
    04:00 +12°C° 0 mm 2 mps 768 mmHg 88%
    05:00 +12°C° 0 mm 2 mps 769 mmHg 87%
    06:00 +12°C° 0 mm 2 mps 769 mmHg 87%
    07:00 +12°C° 0 mm 2 mps 769 mmHg 87%
    08:00 +15°C° 0 mm 2 mps 770 mmHg 78%
    09:00 +17°C° 0 mm 3 mps 770 mmHg 70%
    10:00 +19°C° 0 mm 3 mps 770 mmHg 62%
    11:00 +20°C° 0.1 mm 3 mps 769 mmHg 59%
    12:00 +21°C° 0.1 mm 4 mps 769 mmHg 55%
    13:00 +22°C° 0.1 mm 4 mps 768 mmHg 52%
    14:00 +22°C° 0.1 mm 4 mps 768 mmHg 54%
    15:00 +21°C° 0.1 mm 4 mps 768 mmHg 56%
    16:00 +21°C° 0.1 mm 4 mps 768 mmHg 58%
    17:00 +19°C° 0.1 mm 3 mps 769 mmHg 66%
    18:00 +18°C° 0.1 mm 3 mps 769 mmHg 74%
    19:00 +17°C° 0.1 mm 2 mps 769 mmHg 82%
    20:00 +16°C° 0 mm 2 mps 769 mmHg 84%
    21:00 +16°C° 0 mm 2 mps 769 mmHg 85%
    22:00 +16°C° 0 mm 2 mps 769 mmHg 87%
    23:00 +16°C° 0.4 mm 2 mps 769 mmHg 88%
    Show more